Date,TemperatureHighF,TemperatureAvgF,TemperatureLowF,DewpointHighF,DewpointAvgF,DewpointLowF,HumidityHigh,HumidityAvg,HumidityLow,PressureMaxIn,PressureMinIn,WindSpeedMaxMPH,WindSpeedAvgMPH,GustSpeedMaxMPH,PrecipitationSumIn
2013-2-1,52,44,32,38,22,4,65,44,18,30.37,29.99,44,15,44,0.00
2013-2-2,50,37,27,44,24,9,87,60,35,30.40,30.01,14,4,14,0.00
2013-2-3,52,46,41,44,36,30,85,68,44,30.01,29.83,23,7,23,0.00
2013-2-4,50,42,34,41,29,23,74,61,42,30.14,29.96,15,5,15,0.00
2013-2-5,54,50,46,50,44,37,92,79,70,30.03,29.87,23,10,23,0.00
2013-2-6,62,52,46,49,46,40,92,82,46,30.23,29.95,16,5,16,0.00
2013-2-7,60,52,47,54,49,44,96,88,72,30.25,29.81,40,13,40,2.37
2013-2-8,59,52,47,58,49,41,98,87,72,29.97,29.45,27,11,33,0.66
2013-2-9,52,45,40,41,28,20,76,52,31,30.35,29.97,25,7,25,0.00
2013-2-10,51,45,36,47,37,28,89,74,59,30.46,30.27,17,8,17,0.00
2013-2-11,59,57,50,58,55,47,97,93,85,30.30,29.93,29,13,29,0.06
2013-2-12,59,56,53,57,51,43,97,85,55,30.06,29.92,19,7,19,0.04
2013-2-13,56,52,48,55,50,46,98,94,85,29.98,29.61,23,8,23,0.34
2013-2-14,52,48,42,48,41,37,86,77,63,30.07,29.77,18,5,18,0.00
2013-2-15,53,48,40,44,41,37,92,77,59,30.07,29.94,13,5,13,0.00
2013-2-16,50,43,34,45,39,32,94,87,76,29.94,29.67,25,7,25,0.15
2013-2-17,38,34,31,33,22,11,94,64,34,30.26,29.83,32,11,32,0.02
2013-2-18,52,39,28,41,23,13,67,53,38,30.43,30.26,22,7,22,0.00
2013-2-19,57,54,51,53,50,41,94,86,68,30.29,29.89,45,12,45,0.08
2013-2-20,55,48,42,45,33,11,91,61,18,30.09,29.93,23,7,23,0.00
2013-2-21,53,44,34,40,31,22,77,61,33,30.24,30.06,16,6,16,0.00
2013-2-22,52,44,39,50,37,28,93,77,60,30.31,30.06,27,8,27,0.01
2013-2-23,60,51,46,58,50,46,97,97,92,30.06,29.80,19,5,19,0.56
2013-2-24,60,51,46,52,49,46,98,93,65,29.98,29.72,15,5,15,0.01
2013-2-25,50,43,38,48,36,32,95,77,64,30.17,29.97,24,9,24,0.01
2013-2-26,64,54,41,63,52,35,98,93,79,30.07,29.59,36,15,36,0.55
2013-2-27,56,53,50,55,48,41,98,84,66,29.79,29.60,29,11,29,0.00
2013-2-28,55,50,44,48,40,33,88,70,51,29.82,29.67,19,9,23,0.00